This demonstration page uses our WeatherBlox Daily Observations layout. Learn more.

Left ArrowRight Arrow

Hourly Observations for June 16, 2017

Temp ( °F °C ) Dew Point ( °F °C ) Humidity (%) Winds ( mph kmh ) Pressure ( in mb ) Visibility ( mi km ) Precip ( " mm )
12:51 am 00:51 Clear 78 25.6 -1 -18.3 4 4 WNW 12 19 29.74 1007 10 16 N/A
1:51 am 01:51 Mostly Clear 74 23.3 -1 -18.3 5 5 NNW 7 11 29.74 1007 10 16 N/A
2:51 am 02:51 Clear 65 18.3 -2 -18.9 6 6 SE 5 7 29.76 1008 10 16 N/A
3:51 am 03:51 Clear 62 16.7 5 -15 10 10 E 7 11 29.79 1009 10 16 N/A
4:51 am 04:51 Clear 61 16.1 1 -17.2 9 9 SE 5 7 29.80 1009 10 16 N/A
5:51 am 05:51 Sunny 64 17.8 3 -16.1 9 9 SSE 3 6 29.81 1010 10 16 N/A
6:51 am 06:51 Sunny 71 21.7 4 -15.6 7 7 N N/A 29.81 1010 10 16 N/A
7:51 am 07:51 Sunny 75 23.9 8 -13.3 7 7 S 3 6 29.83 1010 10 16 N/A
8:51 am 08:51 Sunny 80 26.7 7 -13.9 6 6 S 3 6 29.83 1010 10 16 N/A
9:51 am 09:51 Sunny 87 30.6 10 -12.2 5 5 SSE 5 7 29.81 1010 10 16 N/A
10:51 am 10:51 Sunny 94 34.4 8 -13.3 4 4 N N/A 29.78 1009 10 16 N/A
11:51 am 11:51 Sunny 99 37.2 2 -16.7 2 2 WNW 8 13 29.76 1008 10 16 N/A
12:51 pm 12:51 Sunny 102 38.9 -9 -22.8 1 1 NW 9 15 29.73 1007 10 16 N/A
1:51 pm 13:51 Mostly Sunny 103 39.4 -7 -21.7 1 1 NW 8 13 29.71 1006 10 16 N/A
2:51 pm 14:51 Partly Cloudy 104 40 -2 -18.9 2 2 NW 12 19 29.70 1006 10 16 N/A
3:51 pm 15:51 Sunny 104 40 1 -17.2 2 2 WNW 12 19 29.69 1005 10 16 N/A
4:51 pm 16:51 Mostly Cloudy 103 39.4 -1 -18.3 2 2 WNW 14 22 29.67 1005 10 16 N/A
5:51 pm 17:51 Cloudy 101 38.3 4 -15.6 3 3 WNW 22 35 29.67 1005 10 16 N/A
6:51 pm 18:51 Cloudy 98 36.7 5 -15 3 3 WNW 20 31 29.67 1005 10 16 N/A
7:51 pm 19:51 Clear 93 33.9 6 -14.4 4 4 WNW 15 24 29.69 1006 10 16 N/A
8:51 pm 20:51 Cloudy 89 31.7 5 -15 4 4 NW 16 26 29.72 1006 10 16 N/A
9:51 pm 21:51 Cloudy 85 29.4 3 -16.1 4 4 NW 13 20 29.73 1007 10 16 N/A
10:51 pm 22:51 Cloudy with Light Rain 81 27.2 4 -15.6 5 5 NW 10 17 29.72 1007 10 16 N/A
11:51 pm 23:51 Mostly Cloudy 81 27.2 5 -15 5 5 NNW 10 17 29.70 1006 10 16 N/A

Powered by AerisWeather